"Time","Value","Approval","myLocation"
"2023-05-07 00:00",59.8914006118702,"Approved","OW418"
"2023-05-07 01:00",59.8917738619228,"Approved","OW418"
"2023-05-07 02:00",59.8916471119755,"Approved","OW418"
"2023-05-07 03:00",59.8916203620281,"Approved","OW418"
"2023-05-07 04:00",59.8913936120807,"Approved","OW418"
"2023-05-07 05:00",59.8904668621333,"Approved","OW418"
"2023-05-07 06:00",59.891440112186,"Approved","OW418"
"2023-05-07 07:00",59.8907133622386,"Approved","OW418"
"2023-05-07 08:00",59.8903866122912,"Approved","OW418"
"2023-05-07 09:00",59.8911598623439,"Approved","OW418"
"2023-05-07 10:00",59.8902331123965,"Approved","OW418"
"2023-05-07 11:00",59.8907063624491,"Approved","OW418"
"2023-05-07 12:00",59.8904796125017,"Approved","OW418"
"2023-05-07 13:00",59.8904528625544,"Approved","OW418"
"2023-05-07 14:00",59.891026112607,"Approved","OW418"
"2023-05-07 15:00",59.8906993626596,"Approved","OW418"
"2023-05-07 16:00",59.8897726127122,"Approved","OW418"
"2023-05-07 17:00",59.8935458627649,"Approved","OW418"
"2023-05-07 18:00",59.8890191128175,"Approved","OW418"
"2023-05-07 19:00",59.8898923628701,"Approved","OW418"
"2023-05-07 20:00",59.8906656129228,"Approved","OW418"
"2023-05-07 21:00",59.8899388629754,"Approved","OW418"
"2023-05-07 22:00",59.889812113028,"Approved","OW418"
"2023-05-07 23:00",59.8895853630806,"Approved","OW418"
"2023-05-08 00:00",59.8887586131333,"Approved","OW418"
"2023-05-08 01:00",59.8898318631859,"Approved","OW418"
"2023-05-08 02:00",59.8894051132385,"Approved","OW418"
"2023-05-08 03:00",59.8889783632912,"Approved","OW418"
"2023-05-08 04:00",59.8896516133438,"Approved","OW418"
"2023-05-08 05:00",59.8901248633964,"Approved","OW418"
"2023-05-08 06:00",59.889298113449,"Approved","OW418"
"2023-05-08 07:00",59.8892713635017,"Approved","OW418"
"2023-05-08 08:00",59.8891446135543,"Approved","OW418"
"2023-05-08 09:00",59.8890178636069,"Approved","OW418"
"2023-05-08 10:00",59.8883911136596,"Approved","OW418"
"2023-05-08 11:00",59.8893643637122,"Approved","OW418"
"2023-05-08 12:00",59.8882376137648,"Approved","OW418"
"2023-05-08 13:00",59.8892108638174,"Approved","OW418"
"2023-05-08 14:00",59.8894841138701,"Approved","OW418"
"2023-05-08 15:00",59.8897573639227,"Approved","OW418"
"2023-05-08 16:00",59.8889306139753,"Approved","OW418"
"2023-05-08 17:00",59.8900038640279,"Approved","OW418"
"2023-05-08 18:00",59.8894771140806,"Approved","OW418"
"2023-05-08 19:00",59.8898503641332,"Approved","OW418"
"2023-05-08 20:00",59.8903236141858,"Approved","OW418"
"2023-05-08 21:00",59.8901968642385,"Approved","OW418"
"2023-05-08 22:00",59.8900701142911,"Approved","OW418"
"2023-05-08 23:00",59.8899433643437,"Approved","OW418"
"2023-05-09 00:00",59.8902166143963,"Approved","OW418"
"2023-05-09 01:00",59.889889864449,"Approved","OW418"
"2023-05-09 02:00",59.8897631145016,"Approved","OW418"
"2023-05-09 03:00",59.8899363645542,"Approved","OW418"
"2023-05-09 04:00",59.8900096146069,"Approved","OW418"
"2023-05-09 05:00",59.8901828646595,"Approved","OW418"
"2023-05-09 06:00",59.8898561147121,"Approved","OW418"
"2023-05-09 07:00",59.8905293647647,"Approved","OW418"
"2023-05-09 08:00",59.8902026148174,"Approved","OW418"
"2023-05-09 09:00",59.88917586487,"Approved","OW418"
"2023-05-09 10:00",59.8897491149226,"Approved","OW418"
"2023-05-09 11:00",59.8899223649752,"Approved","OW418"
"2023-05-09 12:00",59.8900956150279,"Approved","OW418"
"2023-05-09 13:00",59.8904688650805,"Approved","OW418"
"2023-05-09 14:00",59.8908421151331,"Approved","OW418"
"2023-05-09 15:00",59.8904153651858,"Approved","OW418"
"2023-05-09 16:00",59.8903886152384,"Approved","OW418"
"2023-05-09 17:00",59.891261865291,"Approved","OW418"
"2023-05-09 18:00",59.8911351153436,"Approved","OW418"
"2023-05-09 19:00",59.8920083653963,"Approved","OW418"
"2023-05-09 20:00",59.8925816154489,"Approved","OW418"
"2023-05-09 21:00",59.8917548655015,"Approved","OW418"
"2023-05-09 22:00",59.8915281155542,"Approved","OW418"
"2023-05-09 23:00",59.8918013656068,"Approved","OW418"
"2023-05-10 00:00",59.8917746156594,"Approved","OW418"
"2023-05-10 01:00",59.891047865712,"Approved","OW418"
"2023-05-10 02:00",59.8914211157647,"Approved","OW418"
"2023-05-10 03:00",59.8920943658173,"Approved","OW418"
"2023-05-10 04:00",59.8922676158699,"Approved","OW418"
"2023-05-10 05:00",59.8922408659225,"Approved","OW418"
"2023-05-10 06:00",59.8915141159752,"Approved","OW418"
"2023-05-10 07:00",59.8909873660278,"Approved","OW418"
"2023-05-10 08:00",59.8915606160804,"Approved","OW418"
"2023-05-10 09:00",59.8911338661331,"Approved","OW418"
"2023-05-10 10:00",59.8913071161857,"Approved","OW418"
"2023-05-10 11:00",59.8916803662383,"Approved","OW418"
"2023-05-10 12:00",59.8916536162909,"Approved","OW418"
"2023-05-10 13:00",59.8915268663436,"Approved","OW418"
"2023-05-10 14:00",59.8915001163962,"Approved","OW418"
"2023-05-10 15:00",59.8925733664488,"Approved","OW418"
"2023-05-10 16:00",59.8921466165014,"Approved","OW418"
"2023-05-10 17:00",59.8925198665541,"Approved","OW418"
"2023-05-10 18:00",59.8925931166067,"Approved","OW418"
"2023-05-10 19:00",59.8928663666593,"Approved","OW418"
"2023-05-10 20:00",59.893239616712,"Approved","OW418"
"2023-05-10 21:00",59.8933128667646,"Approved","OW418"
"2023-05-10 22:00",59.8917861168172,"Approved","OW418"
"2023-05-10 23:00",59.8923593668698,"Approved","OW418"
"2023-05-11 00:00",59.8926326169225,"Approved","OW418"
"2023-05-11 01:00",59.8932058669751,"Approved","OW418"
"2023-05-11 02:00",59.8920791170277,"Approved","OW418"
"2023-05-11 03:00",59.8914523670804,"Approved","OW418"
"2023-05-11 04:00",59.892725617133,"Approved","OW418"
"2023-05-11 05:00",59.8931988671856,"Approved","OW418"
"2023-05-11 06:00",59.8923721172382,"Approved","OW418"
"2023-05-11 07:00",59.8922453672909,"Approved","OW418"
"2023-05-11 08:00",59.8929186173435,"Approved","OW418"
"2023-05-11 09:00",59.8921918673961,"Approved","OW418"
"2023-05-11 10:00",59.8923651174488,"Approved","OW418"
"2023-05-11 11:00",59.8926383675014,"Approved","OW418"
"2023-05-11 12:00",59.892111617554,"Approved","OW418"
"2023-05-11 13:00",59.8923848676066,"Approved","OW418"
"2023-05-11 14:00",59.8929581176593,"Approved","OW418"
"2023-05-11 15:00",59.8935313677119,"Approved","OW418"
"2023-05-11 16:00",59.8911046177645,"Approved","OW418"
"2023-05-11 17:00",59.8940778678171,"Approved","OW418"
"2023-05-11 18:00",59.8935511178698,"Approved","OW418"
"2023-05-11 19:00",59.8943243679224,"Approved","OW418"
"2023-05-11 20:00",59.894797617975,"Approved","OW418"
"2023-05-11 21:00",59.8945708680277,"Approved","OW418"
"2023-05-11 22:00",59.8937441180803,"Approved","OW418"
"2023-05-11 23:00",59.8942173681329,"Approved","OW418"
"2023-05-12 00:00",59.8935906181855,"Approved","OW418"
"2023-05-12 01:00",59.8941638682382,"Approved","OW418"
"2023-05-12 02:00",59.8943371182908,"Approved","OW418"
"2023-05-12 03:00",59.8938103683434,"Approved","OW418"
"2023-05-12 04:00",59.8944836183961,"Approved","OW418"
"2023-05-12 05:00",59.8942568684487,"Approved","OW418"
"2023-05-12 06:00",59.8944301185013,"Approved","OW418"
"2023-05-12 07:00",59.8947033685539,"Approved","OW418"
"2023-05-12 08:00",59.8948766186066,"Approved","OW418"
"2023-05-12 09:00",59.8946498686592,"Approved","OW418"
"2023-05-12 10:00",59.8950231187118,"Approved","OW418"
"2023-05-12 11:00",59.8936963687644,"Approved","OW418"
"2023-05-12 12:00",59.8945696188171,"Approved","OW418"
"2023-05-12 13:00",59.8956428688697,"Approved","OW418"
"2023-05-12 14:00",59.8940161189223,"Approved","OW418"
"2023-05-12 15:00",59.895289368975,"Approved","OW418"
"2023-05-12 16:00",59.8964626190276,"Approved","OW418"
"2023-05-12 17:00",59.8960358690802,"Approved","OW418"
"2023-05-12 18:00",59.8970091191328,"Approved","OW418"
"2023-05-12 19:00",59.8967823691855,"Approved","OW418"
"2023-05-12 20:00",59.8965556192381,"Approved","OW418"
"2023-05-12 21:00",59.8973288692907,"Approved","OW418"
"2023-05-12 22:00",59.8982021193434,"Approved","OW418"
"2023-05-12 23:00",59.897375369396,"Approved","OW418"
"2023-05-13 00:00",59.8988486194486,"Approved","OW418"
"2023-05-13 01:00",59.8978218695012,"Approved","OW418"
"2023-05-13 02:00",59.8981951195539,"Approved","OW418"
"2023-05-13 03:00",59.8996683696065,"Approved","OW418"
"2023-05-13 04:00",59.8991416196591,"Approved","OW418"
"2023-05-13 05:00",59.8993148697117,"Approved","OW418"
"2023-05-13 06:00",59.8993881197644,"Approved","OW418"
"2023-05-13 07:00",59.899861369817,"Approved","OW418"
"2023-05-13 08:00",59.8992346198696,"Approved","OW418"
"2023-05-13 09:00",59.9009078699223,"Approved","OW418"
"2023-05-13 10:00",59.8994811199749,"Approved","OW418"
"2023-05-13 11:00",59.8997543700275,"Approved","OW418"
"2023-05-13 12:00",59.9007276200801,"Approved","OW418"
"2023-05-13 13:00",59.9001008701328,"Approved","OW418"
"2023-05-13 14:00",59.8996741201854,"Approved","OW418"
"2023-05-13 15:00",59.901447370238,"Approved","OW418"
"2023-05-13 16:00",59.9011206202907,"Approved","OW418"
"2023-05-13 17:00",59.9009938703433,"Approved","OW418"
"2023-05-13 18:00",59.9018671203959,"Approved","OW418"
"2023-05-13 19:00",59.9031403704485,"Approved","OW418"
"2023-05-13 20:00",59.9035136205012,"Approved","OW418"
"2023-05-13 21:00",59.9035868705538,"Approved","OW418"
"2023-05-13 22:00",59.9039601206064,"Approved","OW418"
"2023-05-13 23:00",59.904333370659,"Approved","OW418"
"2023-05-14 00:00",59.9038066207117,"Approved","OW418"
"2023-05-14 01:00",59.9037798707643,"Approved","OW418"
"2023-05-14 02:00",59.9040531208169,"Approved","OW418"
"2023-05-14 03:00",59.9047263708696,"Approved","OW418"
"2023-05-14 04:00",59.9047996209222,"Approved","OW418"
"2023-05-14 05:00",59.9049728709748,"Approved","OW418"
"2023-05-14 06:00",59.9049461210274,"Approved","OW418"
"2023-05-14 07:00",59.9054193710801,"Approved","OW418"
"2023-05-14 08:00",59.9055926211327,"Approved","OW418"
"2023-05-14 09:00",59.9052658711853,"Approved","OW418"
"2023-05-14 10:00",59.9059391212379,"Approved","OW418"
"2023-05-14 11:00",59.9057123712906,"Approved","OW418"
"2023-05-14 12:00",59.9052856213432,"Approved","OW418"
"2023-05-14 13:00",59.9056588713958,"Approved","OW418"
"2023-05-14 14:00",59.9072321214485,"Approved","OW418"
"2023-05-14 15:00",59.9066053715011,"Approved","OW418"
"2023-05-14 16:00",59.9062786215537,"Approved","OW418"
"2023-05-14 17:00",59.9074518716063,"Approved","OW418"
"2023-05-14 18:00",59.907325121659,"Approved","OW418"
"2023-05-14 19:00",59.9070983717116,"Approved","OW418"
"2023-05-14 20:00",59.9077716217642,"Approved","OW418"
"2023-05-14 21:00",59.9083448718169,"Approved","OW418"
"2023-05-14 22:00",59.9076181218695,"Approved","OW418"
"2023-05-14 23:00",59.9077913719221,"Approved","OW418"
"2023-05-15 00:00",59.9071646219747,"Approved","OW418"
"2023-05-15 01:00",59.9080378720274,"Approved","OW418"
"2023-05-15 02:00",59.90841112208,"Approved","OW418"
"2023-05-15 03:00",59.9071843721326,"Approved","OW418"
"2023-05-15 04:00",59.9078576221852,"Approved","OW418"
"2023-05-15 05:00",59.9081308722379,"Approved","OW418"
"2023-05-15 06:00",59.9071041222905,"Approved","OW418"
"2023-05-15 07:00",59.9077773723431,"Approved","OW418"
"2023-05-15 08:00",59.9076506223958,"Approved","OW418"
"2023-05-15 09:00",59.9074238724484,"Approved","OW418"
"2023-05-15 10:00",59.908297122501,"Approved","OW418"
"2023-05-15 11:00",59.9074703725536,"Approved","OW418"
"2023-05-15 12:00",59.9072436226063,"Approved","OW418"
"2023-05-15 13:00",59.9073168726589,"Approved","OW418"
"2023-05-15 14:00",59.9073901227115,"Approved","OW418"
"2023-05-15 15:00",59.9075633727642,"Approved","OW418"
"2023-05-15 16:00",59.9062366228168,"Approved","OW418"
"2023-05-15 17:00",59.9074098728694,"Approved","OW418"
"2023-05-15 18:00",59.909983122922,"Approved","OW418"
"2023-05-15 19:00",59.9082563729747,"Approved","OW418"
"2023-05-15 20:00",59.9102296230273,"Approved","OW418"
"2023-05-15 21:00",59.9082028730799,"Approved","OW418"
"2023-05-15 22:00",59.9076761231325,"Approved","OW418"
"2023-05-15 23:00",59.9061493731852,"Approved","OW418"
"2023-05-16 00:00",59.9068226232378,"Approved","OW418"
"2023-05-16 01:00",59.9068958732904,"Approved","OW418"
"2023-05-16 02:00",59.9070691233431,"Approved","OW418"
"2023-05-16 03:00",59.9072423733957,"Approved","OW418"
"2023-05-16 04:00",59.9064156234483,"Approved","OW418"
"2023-05-16 05:00",59.9062888735009,"Approved","OW418"
"2023-05-16 06:00",59.9068621235536,"Approved","OW418"
"2023-05-16 07:00",59.9066353736062,"Approved","OW418"
"2023-05-16 08:00",59.9061086236588,"Approved","OW418"
"2023-05-16 09:00",59.9064818737115,"Approved","OW418"
"2023-05-16 10:00",59.9057551237641,"Approved","OW418"
"2023-05-16 11:00",59.9068283738167,"Approved","OW418"
"2023-05-16 12:00",59.9062016238693,"Approved","OW418"
"2023-05-16 13:00",59.906574873922,"Approved","OW418"
"2023-05-16 14:00",59.9067481239746,"Approved","OW418"
"2023-05-16 15:00",59.9061213740272,"Approved","OW418"
"2023-05-16 16:00",59.9068946240798,"Approved","OW418"
"2023-05-16 17:00",59.9071678741325,"Approved","OW418"
"2023-05-16 18:00",59.9069411241851,"Approved","OW418"
"2023-05-16 19:00",59.9066143742377,"Approved","OW418"
"2023-05-16 20:00",59.9073876242904,"Approved","OW418"
"2023-05-16 21:00",59.906760874343,"Approved","OW418"
"2023-05-16 22:00",59.9068341243956,"Approved","OW418"
"2023-05-16 23:00",59.9063073744482,"Approved","OW418"
"2023-05-17 00:00",59.9068806245009,"Approved","OW418"
"2023-05-17 01:00",59.9072538745535,"Approved","OW418"
"2023-05-17 02:00",59.9076271246061,"Approved","OW418"
"2023-05-17 03:00",59.9069003746588,"Approved","OW418"
"2023-05-17 04:00",59.9066736247114,"Approved","OW418"
"2023-05-17 05:00",59.906346874764,"Approved","OW418"
"2023-05-17 06:00",59.9070201248166,"Approved","OW418"
"2023-05-17 07:00",59.9068933748693,"Approved","OW418"
"2023-05-17 08:00",59.9066666249219,"Approved","OW418"
"2023-05-17 09:00",59.9073398749745,"Approved","OW418"
"2023-05-17 10:00",59.9069131250271,"Approved","OW418"
"2023-05-17 11:00",59.9071863750798,"Approved","OW418"
"2023-05-17 12:00",59.9069596251324,"Approved","OW418"
"2023-05-17 13:00",59.906932875185,"Approved","OW418"
"2023-05-17 14:00",59.9071061252377,"Approved","OW418"
"2023-05-17 15:00",59.9067793752903,"Approved","OW418"
"2023-05-17 16:00",59.9066526253429,"Approved","OW418"
"2023-05-17 17:00",59.9066258753955,"Approved","OW418"
"2023-05-17 18:00",59.9067991254482,"Approved","OW418"
"2023-05-17 19:00",59.9070723755008,"Approved","OW418"
"2023-05-17 20:00",59.9066456255534,"Approved","OW418"
"2023-05-17 21:00",59.907418875606,"Approved","OW418"
"2023-05-17 22:00",59.9074921256587,"Approved","OW418"
"2023-05-17 23:00",59.9064653757113,"Approved","OW418"
"2023-05-18 00:00",59.9073386257639,"Approved","OW418"
"2023-05-18 01:00",59.9064118758166,"Approved","OW418"
"2023-05-18 02:00",59.9067851258692,"Approved","OW418"
"2023-05-18 03:00",59.9061583759218,"Approved","OW418"
"2023-05-18 04:00",59.9064316259744,"Approved","OW418"
"2023-05-18 05:00",59.9061048760271,"Approved","OW418"
"2023-05-18 06:00",59.9050781260797,"Approved","OW418"
"2023-05-18 07:00",59.9059513761323,"Approved","OW418"
"2023-05-18 08:00",59.906024626185,"Approved","OW418"
"2023-05-18 09:00",59.9052978762376,"Approved","OW418"
"2023-05-18 10:00",59.9054711262902,"Approved","OW418"
"2023-05-18 11:00",59.9052443763428,"Approved","OW418"
"2023-05-18 12:00",59.9058176263955,"Approved","OW418"
"2023-05-18 13:00",59.9049908764481,"Approved","OW418"
"2023-05-18 14:00",59.905,"Approved","OW418"
"2023-06-01 08:00",59.9049517307303,"Approved","OW418"
"2023-06-01 09:00",59.9059287318696,"Approved","OW418"
"2023-06-01 10:00",59.906805733009,"Approved","OW418"
"2023-06-01 11:00",59.9085827341484,"Approved","OW418"
"2023-06-01 12:00",59.9091597352877,"Approved","OW418"
"2023-06-01 13:00",59.9095367364271,"Approved","OW418"
"2023-06-01 14:00",59.9101137375665,"Approved","OW418"
"2023-06-01 15:00",59.9116907387058,"Approved","OW418"
"2023-06-01 16:00",59.9123677398452,"Approved","OW418"
"2023-06-01 17:00",59.9140447409846,"Approved","OW418"
"2023-06-01 18:00",59.9148217421239,"Approved","OW418"
"2023-06-01 19:00",59.9155987432633,"Approved","OW418"
"2023-06-01 20:00",59.9161757444027,"Approved","OW418"
"2023-06-01 21:00",59.917552745542,"Approved","OW418"
"2023-06-01 22:00",59.9183297466814,"Approved","OW418"
"2023-06-01 23:00",59.9181067478207,"Approved","OW418"
"2023-06-02 00:00",59.9195837489601,"Approved","OW418"
"2023-06-02 01:00",59.9205607500995,"Approved","OW418"
"2023-06-02 02:00",59.9210377512388,"Approved","OW418"
"2023-06-02 03:00",59.9220147523782,"Approved","OW418"
"2023-06-02 04:00",59.9224917535176,"Approved","OW418"
"2023-06-02 05:00",59.9238687546569,"Approved","OW418"
"2023-06-02 06:00",59.9242457557963,"Approved","OW418"
"2023-06-02 07:00",59.9245227569357,"Approved","OW418"
"2023-06-02 08:00",59.925399758075,"Approved","OW418"
"2023-06-02 09:00",59.9260767592144,"Approved","OW418"
"2023-06-02 10:00",59.9257537603537,"Approved","OW418"
"2023-06-02 11:00",59.9281307614931,"Approved","OW418"
"2023-06-02 12:00",59.9280077626325,"Approved","OW418"
"2023-06-02 13:00",59.9286847637718,"Approved","OW418"
"2023-06-02 14:00",59.9294617649112,"Approved","OW418"
"2023-06-02 15:00",59.9302387660506,"Approved","OW418"
"2023-06-02 16:00",59.9303157671899,"Approved","OW418"
"2023-06-02 17:00",59.9320927683293,"Approved","OW418"
"2023-06-02 18:00",59.9325697694687,"Approved","OW418"
"2023-06-02 19:00",59.933046770608,"Approved","OW418"
"2023-06-02 20:00",59.9333237717474,"Approved","OW418"
"2023-06-02 21:00",59.9345007728868,"Approved","OW418"
"2023-06-02 22:00",59.9345777740261,"Approved","OW418"
"2023-06-02 23:00",59.9357547751655,"Approved","OW418"
"2023-06-03 00:00",59.9353317763048,"Approved","OW418"
"2023-06-03 01:00",59.9357087774442,"Approved","OW418"
"2023-06-03 02:00",59.9361857785836,"Approved","OW418"
"2023-06-03 03:00",59.9376627797229,"Approved","OW418"
"2023-06-03 04:00",59.9393397808623,"Approved","OW418"
"2023-06-03 05:00",59.9388167820017,"Approved","OW418"
"2023-06-03 06:00",59.939093783141,"Approved","OW418"
"2023-06-03 07:00",59.9379707842804,"Approved","OW418"
"2023-06-03 08:00",59.9417477854198,"Approved","OW418"
"2023-06-03 09:00",59.9395247865591,"Approved","OW418"
"2023-06-03 10:00",59.9404017876985,"Approved","OW418"
"2023-06-03 11:00",59.9409787888379,"Approved","OW418"
"2023-06-03 12:00",59.9417557899772,"Approved","OW418"
"2023-06-03 13:00",59.9417327911166,"Approved","OW418"
"2023-06-03 14:00",59.942209792256,"Approved","OW418"
"2023-06-03 15:00",59.9437867933953,"Approved","OW418"
"2023-06-03 16:00",59.9443637945347,"Approved","OW418"
"2023-06-03 17:00",59.9452407956741,"Approved","OW418"
"2023-06-03 18:00",59.9480177968134,"Approved","OW418"
"2023-06-03 19:00",59.9464947979528,"Approved","OW418"
"2023-06-03 20:00",59.9421717990921,"Approved","OW418"
"2023-06-03 21:00",59.9472488002315,"Approved","OW418"
"2023-06-03 22:00",59.9458258013709,"Approved","OW418"
"2023-06-03 23:00",59.9424028025102,"Approved","OW418"
"2023-06-04 00:00",59.9427798036496,"Approved","OW418"
"2023-06-04 01:00",59.941356804789,"Approved","OW418"
"2023-06-04 02:00",59.9400338059283,"Approved","OW418"
"2023-06-04 03:00",59.9402108070677,"Approved","OW418"
"2023-06-04 04:00",59.9404878082071,"Approved","OW418"
"2023-06-04 05:00",59.9385648093464,"Approved","OW418"
"2023-06-04 06:00",59.9386418104858,"Approved","OW418"
"2023-06-04 07:00",59.9379188116252,"Approved","OW418"
"2023-06-04 08:00",59.9383958127645,"Approved","OW418"
"2023-06-04 09:00",59.9378728139039,"Approved","OW418"
"2023-06-04 10:00",59.9377498150432,"Approved","OW418"
"2023-06-04 11:00",59.9384268161826,"Approved","OW418"
"2023-06-04 12:00",59.941303817322,"Approved","OW418"
"2023-06-04 13:00",59.9382808184613,"Approved","OW418"
"2023-06-04 14:00",59.9385578196007,"Approved","OW418"
"2023-06-04 15:00",59.9381348207401,"Approved","OW418"
"2023-06-04 16:00",59.9397118218794,"Approved","OW418"
"2023-06-04 17:00",59.9411888230188,"Approved","OW418"
"2023-06-04 18:00",59.9407658241582,"Approved","OW418"
"2023-06-04 19:00",59.9408428252975,"Approved","OW418"
"2023-06-04 20:00",59.9417198264369,"Approved","OW418"
"2023-06-04 21:00",59.9419968275763,"Approved","OW418"
"2023-06-04 22:00",59.9418738287156,"Approved","OW418"
"2023-06-04 23:00",59.942750829855,"Approved","OW418"
"2023-06-05 00:00",59.9443278309944,"Approved","OW418"
"2023-06-05 01:00",59.9438048321337,"Approved","OW418"
"2023-06-05 02:00",59.9436818332731,"Approved","OW418"
"2023-06-05 03:00",59.9451588344124,"Approved","OW418"
"2023-06-05 04:00",59.9453358355518,"Approved","OW418"
"2023-06-05 05:00",59.9450128366912,"Approved","OW418"
"2023-06-05 06:00",59.9448898378305,"Approved","OW418"
"2023-06-05 07:00",59.9474668389699,"Approved","OW418"
"2023-06-05 08:00",59.9468438401093,"Approved","OW418"
"2023-06-05 09:00",59.9461208412486,"Approved","OW418"
"2023-06-05 10:00",59.946997842388,"Approved","OW418"
"2023-06-05 11:00",59.9482748435274,"Approved","OW418"
"2023-06-05 12:00",59.9489518446667,"Approved","OW418"
"2023-06-05 13:00",59.9488288458061,"Approved","OW418"
"2023-06-05 14:00",59.9491058469455,"Approved","OW418"
"2023-06-05 15:00",59.9490828480848,"Approved","OW418"
"2023-06-05 16:00",59.9509598492242,"Approved","OW418"
"2023-06-05 17:00",59.9487368503636,"Approved","OW418"
"2023-06-05 18:00",59.9497138515029,"Approved","OW418"
"2023-06-05 19:00",59.9517908526423,"Approved","OW418"
"2023-06-05 20:00",59.9509678537816,"Approved","OW418"
"2023-06-05 21:00",59.950744854921,"Approved","OW418"
"2023-06-05 22:00",59.9505218560604,"Approved","OW418"
"2023-06-05 23:00",59.9510988571997,"Approved","OW418"
"2023-06-06 00:00",59.9507758583391,"Approved","OW418"
"2023-06-06 01:00",59.9514528594785,"Approved","OW418"
"2023-06-06 02:00",59.9523298606178,"Approved","OW418"
"2023-06-06 03:00",59.9517068617572,"Approved","OW418"
"2023-06-06 04:00",59.9523838628966,"Approved","OW418"
"2023-06-06 05:00",59.9528608640359,"Approved","OW418"
"2023-06-06 06:00",59.9542378651753,"Approved","OW418"
"2023-06-06 07:00",59.9525148663147,"Approved","OW418"
"2023-06-06 08:00",59.953491867454,"Approved","OW418"
"2023-06-06 09:00",59.9533688685934,"Approved","OW418"
"2023-06-06 10:00",59.9523458697327,"Approved","OW418"
"2023-06-06 11:00",59.9536228708721,"Approved","OW418"
"2023-06-06 12:00",59.9544998720115,"Approved","OW418"
"2023-06-06 13:00",59.9526768731508,"Approved","OW418"
"2023-06-06 14:00",59.9542538742902,"Approved","OW418"
"2023-06-06 15:00",59.9532308754296,"Approved","OW418"
"2023-06-06 16:00",59.9538078765689,"Approved","OW418"
"2023-06-06 17:00",59.9525848777083,"Approved","OW418"
"2023-06-06 18:00",59.9535618788477,"Approved","OW418"
"2023-06-06 19:00",59.952438879987,"Approved","OW418"
"2023-06-06 20:00",59.9536158811264,"Approved","OW418"
"2023-06-06 21:00",59.9536928822658,"Approved","OW418"
"2023-06-06 22:00",59.9527698834051,"Approved","OW418"
"2023-06-06 23:00",59.9527468845445,"Approved","OW418"
"2023-06-07 00:00",59.9541238856838,"Approved","OW418"
"2023-06-07 01:00",59.9537008868232,"Approved","OW418"
"2023-06-07 02:00",59.9524778879626,"Approved","OW418"
"2023-06-07 03:00",59.9521548891019,"Approved","OW418"
"2023-06-07 04:00",59.9535318902413,"Approved","OW418"
"2023-06-07 05:00",59.9527088913807,"Approved","OW418"
"2023-06-07 06:00",59.95288589252,"Approved","OW418"
"2023-06-07 07:00",59.9520628936594,"Approved","OW418"
"2023-06-07 08:00",59.9521398947988,"Approved","OW418"
"2023-06-07 09:00",59.9516168959381,"Approved","OW418"
"2023-06-07 10:00",59.9503938970775,"Approved","OW418"
"2023-06-07 11:00",59.9514708982169,"Approved","OW418"
"2023-06-07 12:00",59.9506478993562,"Approved","OW418"